Regional Weather Roundup
Issued by NWS

Home | Current Version | Previous Version | Graphics & Text | Print | Product List | Glossary Off
Versions: 1 2 3 4 5 6 7 8 9 10 11 12 13 14 15 16 17 18 19 20 21 22 23 24 25 26 27 28 29 30 31 32 33 34 35 36 37 38 39 40 41 42 43 44 45 46 47 48 49 50

090
ASUS43 KLSX 271907
RWRMO

WEATHER SUMMARY FOR MISSOURI
NATIONAL WEATHER SERVICE SPRINGFIELD MO
200 PM CDT TUE SEP 27 2016

NOTE: "FAIR" INDICATES FEW OR NO CLOUDS BELOW 12,000 FEET WITH NO
       SIGNIFICANT WEATHER AND/OR OBSTRUCTIONS TO VISIBILITY.
       CURRENT SKY AND/OR WEATHER CONDITIONS ARE NOT AVAILABLE FOR
       CHILLICOTHE AND FARMINGTON.

MOZ001>031-035>038-043-044-053-054-272000-
...NORTHERN AND WESTERN MISSOURI...

CITY           SKY/WX    TMP DP  RH WIND       PRES   REMARKS
KANSAS CTY INT SUNNY     75  52  44 W7        29.96F
KANSAS C DTWN  SUNNY     77  52  41 S5        29.95F
LEE`S SUMMIT   SUNNY     77  51  40 W6        29.97F
ST JOSEPH      SUNNY     79  50  36 VRB3      29.95F
CHILLICOTHE      N/A     78  48  34 NW7       29.94F
KIRKSVILLE     SUNNY     75  43  31 NW16G23   29.92F

$$
MOZ066>068-077>081-088>096-101>105-272000-
...SOUTHWEST MISSOURI...

CITY           SKY/WX    TMP DP  RH WIND       PRES   REMARKS
SPRINGFIELD    SUNNY     78  42  27 W12       30.02F
JOPLIN         SUNNY     78  50  37 SW13      30.03F
BRANSON        MOSUNNY   73  46  38 W3        30.06F

$$
MOZ032>034-039>042-045>050-055>058-069>072-272000-
...CENTRAL MISSOURI...

CITY           SKY/WX    TMP DP  RH WIND       PRES   REMARKS
COLUMBIA       SUNNY     77  49  37 SW13      29.95F
JEFFERSON CITY SUNNY     79  48  33 SW12G18   29.94F
ROLLA          SUNNY     76  47  35 W15       29.97F
SEDALIA        SUNNY     80  50  34 SW12      29.97F
WHITEMAN AFB   SUNNY     78  51  38 W12       29.94F
OSAGE BEACH    SUNNY     77  50  38 W9        29.99F

$$
MOZ051-052-059>065-272000-
...EAST CENTRAL MISSOURI...

CITY           SKY/WX    TMP DP  RH WIND       PRES   REMARKS
ST LOUIS INTL  MOSUNNY   80  47  31 W15G21    29.93F
SPIRIT OF STL  SUNNY     78  50  37 SW12      29.92F
ST CHARLES     SUNNY     79  45  29 W14G22    29.90F

$$
MOZ072>076-082>087-097>100-106>115-272000-
...SOUTH CENTRAL AND SOUTHEAST MISSOURI...

CITY           SKY/WX    TMP DP  RH WIND       PRES   REMARKS
CAPE GIRARDEAU SUNNY     78  47  33 W9        29.96F
FARMINGTON     SUNNY     75  49  39 W9        29.98F
POPLAR BLUFF     N/A     79  47  32 VRB5      29.98F HAZE
WEST PLAINS    SUNNY     76  48  37 W10       30.04F

$$



USA.gov is the U.S. government's official web portal to all federal, state and local government web resources and services.